Tracking 30995 objects as of 7-Jul-2025
HD Live streaming from Space Station
objects crossing your sky now

COSMOS 1275 DEB

Track COSMOS 1275 DEB now!
10-day predictions


NORAD ID: 14441
Int'l Code: 1981-053JL
Perigee: 837.8 km
Apogee: 890.1 km
Inclination: 83.1 °
Period: 102.1 minutes
Semi major axis: 7234 km
RCS: 0.0079 m2 (small)
Launch date: June 4, 1981
Source: Commonwealth of Independent States (former USSR) (CIS)
Launch site: PLESETSK MISSILE AND SPACE COMPLEX (PKMTR)

Note: This is SATELLITE DEBRIS
Your satellite tracking list
STARLINK-6094
Track 1 satellite(s)




NASA's NSSDC Master Catalog

Two Line Element Set (TLE):
1 14441U 81053JH  25187.39778402  .00001165  00000-0  63882-3 0  9997
2 14441  83.1148 179.6599 0036119 279.3384  80.3709 14.10742202224281
Source of the keplerian elements: AFSPC